sat.trackr.live / text

‹ back to catalog

EUTELSAT 3B

NORAD 39773 · 2014-030A

PAYLOAD ACTIVE UNKNOWN

§ Identity

Operator
Country
EUTE
Launch date
2014-05-26
Launch site
SEAL
Launch vehicle
Mass (kg)
RCS (m²)
79.44

Purposes: comms

External: N2YO · Heavens-Above · Gunter

§ Orbital elements

Epoch: 2026-09-19T19:45:56.300256Z

Period
1,436.10 min
Inclination
0.0623°
Eccentricity
0.0004175
Mean motion
1.00271332 rev/d
Perigee alt
35,769.1 km
Apogee alt
35,804.3 km
Semi-major
42,164.9 km
B*
0.0000e+0
RAAN
352.8541°
Arg perigee
182.4004°
Mean anomaly
123.0686°
Rev number
4,501

§ Raw data

EUTELSAT 3B1 39773U 14030A   26262.82356829  .00000016  00000+0  00000+0 0  99932 39773   0.0623 352.8541 0004175 182.4004 123.0686  1.00271332 45011

JSON: /api/v1/satellites/39773 · /tle

For live sub-satellite position, see the globe view (requires WebGL).

§ Visibility from observer

Set your observer location to see the next 7 days of passes ≥ 10°. The values pass through the URL so the page stays shareable.

No JS? Fill the form by hand. The geolocation button needs JavaScript.